�������l�o���
Date,Time,MP-1(��Sv/h),MP-2(��Sv/h),MP-3(��Sv/h),MP-4(��Sv/h),MP-5(��Sv/h),MP-6(��Sv/h),MP-7(��Sv/h),����,����(m/s),���J
2013/08/14,00:00,0.9,0.6,0.9,0.9,0.8,0.4,0.3,�k�k��,1.9,��
2013/08/14,00:10,0.9,0.6,0.9,0.9,0.8,0.4,0.3,�k��,2.2,��
2013/08/14,00:20,0.9,0.6,0.9,0.9,0.8,0.4,0.3,�k�k��,1.6,��
2013/08/14,00:30,0.9,0.6,0.9,0.9,0.8,0.4,0.3,�k�k��,1.2,��
2013/08/14,00:40,0.9,0.6,0.9,0.9,0.8,0.4,0.3,�k�k��,2.5,��
2013/08/14,00:50,0.9,0.6,0.9,0.9,0.8,0.4,0.3,�k,2.9,��
2013/08/14,01:00,0.9,0.6,0.9,0.9,0.8,0.4,0.3,�k,3.3,��
2013/08/14,01:10,0.9,0.6,0.9,0.9,0.8,0.4,0.3,�k,2.5,��
2013/08/14,01:20,0.9,0.6,0.9,0.9,0.8,0.4,0.3,�k,2.3,��
2013/08/14,01:30,0.9,0.6,0.9,0.9,0.8,0.4,0.3,�k,3.1,��
2013/08/14,01:40,0.9,0.6,0.9,0.9,0.8,0.4,0.3,�k�k��,3.0,��
2013/08/14,01:50,0.9,0.6,0.9,0.9,0.8,0.4,0.3,�k,3.1,��
2013/08/14,02:00,0.9,0.6,0.9,0.9,0.8,0.4,0.3,�k,3.6,��
2013/08/14,02:10,0.9,0.6,0.9,0.9,0.8,0.4,0.3,�k,3.4,��
2013/08/14,02:20,0.9,0.6,0.9,0.9,0.8,0.4,0.3,�k,4.1,��
2013/08/14,02:30,0.9,0.6,0.9,0.8,0.8,0.4,0.3,�k,3.9,��
2013/08/14,02:40,0.9,0.6,0.9,0.9,0.8,0.4,0.3,�k,4.4,��
2013/08/14,02:50,0.9,0.6,0.9,0.9,0.8,0.4,0.3,�k,3.9,��
2013/08/14,03:00,0.9,0.6,0.9,0.9,0.8,0.4,0.3,�k,4.0,��
2013/08/14,03:10,0.9,0.6,0.9,0.9,0.8,0.4,0.3,�k,4.7,��
2013/08/14,03:20,0.9,0.6,0.9,0.9,0.8,0.4,0.3,�k,5.1,��
2013/08/14,03:30,0.9,0.6,0.9,0.9,0.8,0.4,0.3,�k,6.5,��
2013/08/14,03:40,0.9,0.6,0.9,0.8,0.8,0.4,0.3,�k,6.4,��
2013/08/14,03:50,0.9,0.6,0.9,0.8,0.8,0.4,0.3,�k,6.4,��
2013/08/14,04:00,0.9,0.6,0.9,0.8,0.8,0.4,0.3,�k,5.9,��
2013/08/14,04:10,0.9,0.6,0.9,0.8,0.8,0.4,0.3,�k,6.6,��
2013/08/14,04:20,0.9,0.6,0.9,0.8,0.8,0.4,0.3,�k,6.4,��
2013/08/14,04:30,0.9,0.6,0.9,0.8,0.8,0.4,0.3,�k,5.3,��
2013/08/14,04:40,0.9,0.6,0.9,0.8,0.8,0.4,0.3,�k,5.5,��
2013/08/14,04:50,0.9,0.6,0.9,0.8,0.8,0.4,0.3,�k,5.5,��
2013/08/14,05:00,0.9,0.6,0.9,0.8,0.8,0.4,0.3,�k,4.5,��
2013/08/14,05:10,0.9,0.6,0.9,0.9,0.8,0.4,0.3,�k,4.7,��
2013/08/14,05:20,0.9,0.6,0.9,0.8,0.8,0.4,0.3,�k,4.9,��
2013/08/14,05:30,0.9,0.6,0.9,0.9,0.8,0.4,0.3,�k,5.0,��
2013/08/14,05:40,0.9,0.6,0.9,0.8,0.8,0.4,0.3,�k,5.4,��
2013/08/14,05:50,0.9,0.6,0.9,0.9,0.8,0.4,0.3,�k,5.6,��
2013/08/14,06:00,0.9,0.6,0.9,0.9,0.8,0.4,0.3,�k,4.5,��
2013/08/14,06:10,0.9,0.6,0.9,0.8,0.8,0.4,0.3,�k,5.1,��
2013/08/14,06:20,0.9,0.6,0.9,0.9,0.8,0.4,0.3,�k,4.4,��
2013/08/14,06:30,0.9,0.6,0.9,0.9,0.8,0.4,0.3,�k,4.2,��
2013/08/14,06:40,0.9,0.6,0.9,0.9,0.8,0.4,0.3,�k,3.3,��
2013/08/14,06:50,0.9,0.6,0.9,0.9,0.8,0.4,0.3,�k,3.2,��
2013/08/14,07:00,0.9,0.6,0.9,0.9,0.8,0.4,0.3,�k�k��,2.1,��
2013/08/14,07:10,0.9,0.6,0.9,0.9,0.8,0.4,0.3,�k,2.4,��
2013/08/14,07:20,0.9,0.6,0.9,0.9,0.8,0.4,0.3,�k,1.8,��
2013/08/14,07:30,0.9,0.6,0.9,0.9,0.8,0.4,0.3,�k,2.8,��
2013/08/14,07:40,0.9,0.6,0.9,0.9,0.8,0.4,0.3,�k,2.6,��
2013/08/14,07:50,0.9,0.6,0.9,0.9,0.8,0.4,0.3,�k,2.5,��
2013/08/14,08:00,0.9,0.6,0.9,0.9,0.8,0.4,0.3,�k,2.1,��
2013/08/14,08:10,0.9,0.6,0.9,0.9,0.8,0.4,0.3,�k�k��,1.8,��
2013/08/14,08:20,0.9,0.6,0.9,0.9,0.8,0.4,0.3,�k�k��,2.1,��
2013/08/14,08:30,0.9,0.6,0.9,0.9,0.8,0.4,0.3,�k��,2.8,��
2013/08/14,08:40,0.9,0.6,0.9,0.9,0.8,0.4,0.3,�k�k��,3.3,��
2013/08/14,08:50,0.9,0.6,0.9,0.9,0.8,0.4,0.3,�k�k��,3.3,��
2013/08/14,09:00,0.9,0.6,0.9,0.9,0.8,0.4,0.3,�k��,3.8,��
2013/08/14,09:10,0.9,0.6,0.9,0.9,0.8,0.4,0.3,�k�k��,2.6,��
2013/08/14,09:20,0.9,0.6,0.9,0.9,0.8,0.4,0.3,�k��,3.0,��
2013/08/14,09:30,0.9,0.6,0.9,0.9,0.8,0.4,0.3,�k��,2.8,��
2013/08/14,09:40,0.9,0.6,0.9,0.9,0.8,0.4,0.3,�k��,3.1,��
2013/08/14,09:50,0.9,0.6,0.9,0.9,0.8,0.4,0.3,�k��,2.8,��
2013/08/14,10:00,0.9,0.6,0.9,0.9,0.8,0.4,0.3,�k��,2.5,��
2013/08/14,10:10,0.9,0.6,0.9,0.9,0.8,0.4,0.3,�k��,2.5,��
2013/08/14,10:20,0.9,0.6,0.9,0.9,0.8,0.4,0.3,��,2.2,��
2013/08/14,10:30,0.9,0.6,0.9,0.9,0.8,0.4,0.3,���k��,2.2,��
2013/08/14,10:40,0.9,0.6,0.9,0.9,0.8,0.4,0.3,���k��,1.9,��
2013/08/14,10:50,0.9,0.6,0.9,0.9,0.8,0.4,0.3,��,1.9,��
2013/08/14,11:00,0.9,0.6,0.9,0.9,0.8,0.4,0.3,���k��,1.6,��
2013/08/14,11:10,0.9,0.6,0.9,0.9,0.8,0.4,0.3,���k��,1.9,��
2013/08/14,11:20,0.9,0.6,0.9,0.9,0.8,0.4,0.3,���k��,2.2,��
2013/08/14,11:30,0.9,0.6,0.9,0.9,0.8,0.4,0.3,��,2.0,��
2013/08/14,11:40,0.9,0.6,0.9,0.9,0.8,0.4,0.3,��,1.5,��
2013/08/14,11:50,0.9,0.6,0.9,0.9,0.8,0.4,0.3,��,1.3,��
2013/08/14,12:00,0.9,0.6,0.9,0.9,0.8,0.4,0.3,���쓌,1.4,��
2013/08/14,12:10,0.9,0.6,0.9,0.9,0.8,0.4,0.3,��,1.3,��
2013/08/14,12:20,0.9,0.6,0.9,0.9,0.8,0.4,0.3,��,1.8,��
2013/08/14,12:30,0.9,0.6,0.9,0.9,0.8,0.4,0.3,���쓌,1.8,��
2013/08/14,12:40,0.9,0.6,0.9,0.9,0.8,0.4,0.3,�쓌,2.4,��
2013/08/14,12:50,0.9,0.6,0.9,0.9,0.8,0.4,0.3,���쓌,2.3,��
2013/08/14,13:00,0.9,0.6,0.9,0.9,0.8,0.4,0.3,�쓌,2.2,��
2013/08/14,13:10,0.9,0.6,0.9,0.9,0.8,0.4,0.3,��쓌,2.2,��
2013/08/14,13:20,0.9,0.6,0.9,0.9,0.8,0.4,0.3,�쓌,2.1,��
2013/08/14,13:30,0.9,0.6,0.9,0.9,0.8,0.4,0.3,�쓌,2.4,��
2013/08/14,13:40,0.9,0.6,0.9,0.9,0.8,0.4,0.3,�쓌,2.2,��
2013/08/14,13:50,0.9,0.6,0.9,0.9,0.8,0.4,0.3,�쓌,2.7,��
2013/08/14,14:00,0.9,0.6,0.9,0.9,0.8,0.4,0.3,�쓌,1.7,��
2013/08/14,14:10,0.9,0.6,0.9,0.9,0.8,0.4,0.3,��쓌,2.0,��
2013/08/14,14:20,0.9,0.6,0.9,0.9,0.8,0.4,0.3,��쓌,1.9,��
2013/08/14,14:30,0.9,0.6,0.9,0.9,0.8,0.4,0.3,�쓌,1.6,��
2013/08/14,14:40,0.9,0.6,0.9,0.9,0.8,0.4,0.3,�쓌,1.6,��
2013/08/14,14:50,0.9,0.6,0.9,0.9,0.8,0.4,0.3,��쓌,1.9,��
2013/08/14,15:00,0.9,0.6,0.9,0.9,0.8,0.4,0.3,�쓌,2.2,��
2013/08/14,15:10,0.9,0.6,0.9,0.9,0.8,0.4,0.3,�쓌,2.3,��
2013/08/14,15:20,0.9,0.6,0.9,0.9,0.8,0.4,0.3,���쓌,1.6,��
2013/08/14,15:30,0.9,0.6,0.9,0.9,0.8,0.4,0.3,�쓌,1.6,��
2013/08/14,15:40,0.9,0.6,0.9,0.9,0.8,0.4,0.3,��쓌,1.0,��
2013/08/14,15:50,0.9,0.6,0.9,0.9,0.8,0.4,0.3,��쓌,1.3,��
2013/08/14,16:00,0.9,0.6,0.9,0.9,0.8,0.4,0.3,-,CALM,��
2013/08/14,16:10,0.9,0.6,0.9,0.9,0.8,0.4,0.3,�쓌,1.0,��
2013/08/14,16:20,0.9,0.6,0.9,0.9,0.8,0.4,0.3,�쓌,2.1,��
2013/08/14,16:30,0.9,0.6,0.9,0.9,0.8,0.4,0.3,�쓌,1.8,��
2013/08/14,16:40,0.9,0.6,0.9,0.9,0.8,0.4,0.3,�쓌,1.9,��
2013/08/14,16:50,0.9,0.6,0.9,0.9,0.8,0.4,0.3,�쓌,1.9,��
2013/08/14,17:00,0.9,0.6,0.9,0.9,0.8,0.4,0.3,��쓌,2.2,��
2013/08/14,17:10,0.9,0.6,0.9,0.9,0.8,0.4,0.3,��쓌,2.2,��
2013/08/14,17:20,0.9,0.6,0.9,0.9,0.8,0.4,0.3,��쓌,2.4,��
2013/08/14,17:30,0.9,0.6,0.9,0.9,0.8,0.4,0.3,��쓌,2.5,��
2013/08/14,17:40,0.9,0.6,0.9,0.9,0.8,0.4,0.3,��쓌,2.5,��
2013/08/14,17:50,0.9,0.6,0.9,0.9,0.8,0.4,0.3,��쓌,2.5,��
2013/08/14,18:00,0.9,0.6,0.9,0.9,0.8,0.4,0.3,��쓌,2.2,��
2013/08/14,18:10,0.9,0.6,0.9,0.9,0.8,0.4,0.3,��,2.8,��
2013/08/14,18:20,0.9,0.6,0.9,0.9,0.8,0.4,0.3,��,2.3,��
2013/08/14,18:30,0.9,0.6,0.9,0.9,0.8,0.4,0.3,��,2.2,��
2013/08/14,18:40,0.9,0.6,0.9,0.9,0.8,0.4,0.3,��,2.3,��
2013/08/14,18:50,0.9,0.6,0.9,0.9,0.8,0.4,0.3,��,2.8,��
2013/08/14,19:00,0.9,0.6,0.9,0.9,0.8,0.4,0.3,��,2.9,��
2013/08/14,19:10,0.9,0.6,0.9,0.9,0.8,0.4,0.3,��,3.4,��
2013/08/14,19:20,0.9,0.6,0.9,0.9,0.8,0.4,0.3,��,3.1,��
2013/08/14,19:30,0.9,0.6,0.9,0.9,0.8,0.4,0.3,��,2.9,��
2013/08/14,19:40,0.9,0.6,0.9,0.9,0.8,0.4,0.3,��,3.2,��
2013/08/14,19:50,0.9,0.6,0.9,0.9,0.8,0.4,0.3,��,3.4,��
2013/08/14,20:00,0.9,0.6,0.9,0.9,0.8,0.4,0.3,��,3.6,��
2013/08/14,20:10,0.9,0.6,0.9,0.9,0.8,0.4,0.3,��,3.9,��
2013/08/14,20:20,0.9,0.6,0.9,0.9,0.8,0.4,0.3,��,4.4,��
2013/08/14,20:30,0.9,0.6,0.9,0.9,0.8,0.4,0.3,��,4.2,��
2013/08/14,20:40,0.9,0.6,0.9,0.9,0.8,0.4,0.3,��,3.7,��
2013/08/14,20:50,0.9,0.6,0.9,0.9,0.8,0.4,0.3,��,3.4,��
2013/08/14,21:00,0.9,0.6,0.9,0.9,0.8,0.4,0.3,��,3.8,��
2013/08/14,21:10,0.9,0.6,0.9,0.9,0.8,0.4,0.3,��,4.2,��
2013/08/14,21:20,0.9,0.6,0.9,0.9,0.8,0.4,0.3,��,2.6,��
2013/08/14,21:30,0.9,0.6,0.9,0.9,0.8,0.4,0.3,��,3.1,��
2013/08/14,21:40,0.9,0.6,0.9,0.9,0.8,0.4,0.3,��,3.7,��
2013/08/14,21:50,0.9,0.6,0.9,0.9,0.8,0.4,0.3,��,4.6,��
2013/08/14,22:00,0.9,0.6,0.9,0.9,0.8,0.4,0.3,��,4.8,��
2013/08/14,22:10,0.9,0.6,0.9,0.9,0.8,0.4,0.3,��,5.0,��
2013/08/14,22:20,0.9,0.6,0.9,0.9,0.8,0.4,0.3,��,4.9,��
2013/08/14,22:30,0.9,0.6,0.9,0.9,0.8,0.4,0.3,��,4.8,��
2013/08/14,22:40,0.9,0.6,0.9,0.9,0.8,0.4,0.3,��,5.9,��
2013/08/14,22:50,0.9,0.6,0.9,0.9,0.8,0.4,0.3,��,5.3,��
2013/08/14,23:00,0.9,0.6,0.9,0.9,0.8,0.4,0.3,��,5.2,��
2013/08/14,23:10,0.9,0.6,0.9,0.9,0.8,0.4,0.3,��,5.3,��
2013/08/14,23:20,0.9,0.6,0.9,0.9,0.8,0.4,0.3,��,5.0,��
2013/08/14,23:30,0.9,0.6,0.9,0.9,0.8,0.4,0.3,��,4.6,��
2013/08/14,23:40,0.9,0.6,0.9,0.9,0.8,0.4,0.3,��,4.8,��
2013/08/14,23:50,0.9,0.6,0.9,0.9,0.8,0.4,0.3,��,4.9,��
